Home   Weather   Chattanooga   Past weeks

Flag for USA Past Weather in Chattanooga, Tennessee, USA — Yesterday and Last 2 Weeks

Now
72 °F

Passing clouds.


Feels Like: 69 °F
Forecast: 62 / 81 °F
Wind: No wind

Location: Lovell Field

Current Time: Sep 27, 2016 at 3:01:33 AM

Latest Report: Sep 27, 2016 at 1:53 AM


Visibility: 8 mi

Pressure: 30.00 "Hg

Humidity: 91%

Dew Point: 69 °F

Location of ChattanoogaLocation

Past Weather in Chattanooga — Graph

°F

Chattanooga Temperature Yesterday

Maximum temperature yesterday: 89 °F (at 12:53 PM)
Minimum temperature yesterday: 70 °F (at 7:53 AM)
Average temperature yesterday: 75 °F

High & Low Weather Summary for the Past Weeks

 TemperatureHumidityPressure
High97 °F (Sep 15, 4:53 PM)100% (Sep 18, 2:53 PM)30.17 "Hg (Sep 18, 2:53 PM)
Low64 °F (Sep 12, 6:53 AM)25% (Sep 15, 4:53 PM)29.95 "Hg (Sep 18, 4:53 PM)
Average79 °F62%30.05 "Hg
* Reported Sep 12 1:53 AM — Sep 27 1:53 AM, Chattanooga, Weather by CustomWeather, © 2016

Note: Actual official high and low records may vary slightly from our data, if they occured in-between our weather recording intervals... More about our weather records

Advertising

Chattanooga Weather History for the Previous 24 Hours

Scroll right to see more
 ConditionsComfort  
Time TempWeatherWind HumidityBarometerVisibility
1:53 AM
Tue, Sep 27
72 °FPassing clouds.No wind91%30.00 "Hg8 mi
12:53 AM71 °FLow clouds.No wind90%30.01 "Hg8 mi
11:53 PM
Mon, Sep 26
71 °FPassing clouds.No wind90%30.00 "Hg9 mi
10:53 PM71 °FPartly cloudy.No wind90%30.00 "Hg10 mi
9:53 PM70 °FPassing clouds.3 mph93%30.01 "Hg10 mi
8:53 PM71 °FPassing clouds.5 mph90%30.01 "Hg10 mi
7:53 PM73 °FPassing clouds.No wind88%30.00 "Hg10 mi
6:53 PM76 °FBroken clouds.3 mph77%29.99 "Hg10 mi
5:53 PM76 °FPartly sunny.8 mph77%30.01 "Hg10 mi
4:53 PM74 °FBroken clouds.5 mph85%29.98 "Hg10 mi
3:53 PM72 °FBroken clouds.5 mph93%30.02 "Hg10 mi
3:03 PM71 °FLight rain. Partly sunny.No wind93%30.04 "Hg10 mi
2:53 PM71 °FThunderstorms. Partly sunny.6 mph93%30.02 "Hg10 mi
12:53 PM89 °FBroken clouds.6 mph46%30.03 "Hg10 mi
11:53 AM84 °FBroken clouds.5 mph55%30.04 "Hg10 mi
10:53 AM82 °FPartly sunny.7 mph56%30.05 "Hg10 mi
9:53 AM78 °FPartly sunny.3 mph62%30.05 "Hg10 mi
8:53 AM74 °FScattered clouds.6 mph69%30.04 "Hg10 mi
7:53 AM70 °FScattered clouds.No wind79%30.04 "Hg10 mi
6:53 AM71 °FPassing clouds.3 mph76%30.01 "Hg10 mi
5:53 AM72 °FPassing clouds.No wind73%30.01 "Hg10 mi
4:53 AM72 °FClear.No wind73%30.01 "Hg10 mi
3:53 AM74 °FClear.No wind69%30.01 "Hg10 mi
Weather by CustomWeather, © 2016

See weather overviewHow to use our weather pages